This is the latest recevied weather packets stored in our database for station/object WS2Z. If no packets are shown the sender has not sent any weather packets the latest 10 day(s).
| Time | Temp. | Humidity | Pressure | Rain* | Wind** | Luminosity | Snow |
|---|---|---|---|---|---|---|---|
| 1777742928 | 31.67° C | 60% | 1012.8 hPa | 0 mm | - | 867 W/m² | - |
| 1777742320 | 31.67° C | 61% | 1012.6 hPa | 0 mm | - | 875 W/m² | - |
| 1777741714 | 31.11° C | 61% | 1012.8 hPa | 0 mm | - | 878 W/m² | - |
| 1777741106 | 31.11° C | 64% | 1012.7 hPa | 0 mm | - | 872 W/m² | - |
| 1777740501 | 31.11° C | 61% | 1012.4 hPa | 0 mm | - | 866 W/m² | - |
| 1777739894 | 31.11° C | 64% | 1012.3 hPa | 0 mm | - | 756 W/m² | - |
| 1777738681 | 31.67° C | 65% | 1012.7 hPa | 0 mm | - | 845 W/m² | - |
| 1777738075 | 31.11° C | 66% | 1012.8 hPa | 0 mm | - | 830 W/m² | - |
| 1777737473 | 31.11° C | 65% | 1012.5 hPa | 0 mm | - | 782 W/m² | - |
| 1777736252 | 30.56° C | 67% | 1012.4 hPa | 0 mm | - | 203 W/m² | - |
| 1777735949 | 30° C | 69% | 1012.4 hPa | 0 mm | - | 223 W/m² | - |
| 1777735646 | 30.56° C | 67% | 1012.4 hPa | 0 mm | - | 209 W/m² | - |
| 1777735343 | 30° C | 70% | 1012.5 hPa | 0 mm | - | 146 W/m² | - |
| 1777735041 | 30.56° C | 69% | 1012.5 hPa | 0 mm | - | 304 W/m² | - |
| 1777734738 | 30.56° C | 70% | 1012.6 hPa | 0 mm | - | 364 W/m² | - |
| 1777734435 | 30.56° C | 70% | 1012.7 hPa | 0 mm | - | 300 W/m² | - |
| 1777734132 | 30.56° C | 69% | 1012.7 hPa | 0 mm | - | 297 W/m² | - |
| 1777733828 | 30° C | 72% | 1012.4 hPa | 0 mm | - | 332 W/m² | - |
| 1777733525 | 29.44° C | 72% | 1012.6 hPa | 0 mm | - | 199 W/m² | - |
| 1777732918 | 29.44° C | 73% | 1012.5 hPa | 0 mm | - | 167 W/m² | - |
| 1777732614 | 29.44° C | 73% | 1012.4 hPa | 0 mm | - | 181 W/m² | - |
| 1777732312 | 29.44° C | 73% | 1012.4 hPa | 0 mm | - | 187 W/m² | - |
| 1777732009 | 29.44° C | 74% | 1012.5 hPa | 0 mm | - | 201 W/m² | - |
| 1777731706 | 29.44° C | 72% | 1012.7 hPa | 0 mm | - | 193 W/m² | - |
| 1777731403 | 29.44° C | 73% | 1012.4 hPa | 0 mm | - | 355 W/m² | - |
* Rain latest hour (hover to see other rain measurements)
** Current wind speed in m/s (hover to see current wind gust speed)